Preview of NWS' New Version of Forecast
This preview is not operational and should not be used for support decisions.

Regional Weather Roundup (RWR)

Issued by National Weather Service (NWS)

                            
000
ASUS43 KBIS 181302
RWRND 

NORTH DAKOTA REGIONAL WEATHER ROUNDUP
NATIONAL WEATHER SERVICE BISMARCK ND
800 AM CDT THU APR 18 2019

NOTE: "FAIR" INDICATES FEW OR NO CLOUDS BELOW 12,000 FEET WITH NO
SIGNIFICANT WEATHER AND/OR OBSTRUCTIONS TO VISIBILITY.


NDZ001>003-009>011-017-181400-
NORTHWEST NORTH DAKOTA
  
CITY           SKY/WX    TMP DP  RH WIND       PRES   REMARKS
WILLISTON      FOG       31  29  92 NE3       30.01R VSB 1/4          
MINOT          CLOUDY    39  37  92 W8        29.94R                  
MINOT AFB      FOG       38  38 100 NW9       29.94R VSB 3/8          
$$
 
NDZ018>021-031>035-040>046-181400-
SOUTHWEST NORTH DAKOTA
  
CITY           SKY/WX    TMP DP  RH WIND       PRES   REMARKS
BISMARCK       FOG       35  34  96 NW7       29.96R VSB 1/4          
DICKINSON      PTCLDY    35  31  85 NW9       29.95R                  
GARRISON         N/A     35  35 100 W9        29.94R                  
HETTINGER ARPT CLEAR     37  32  82 NW14      29.97R                  
$$
 
NDZ004>008-012>016-024-026-027-054-181400-
NORTHEAST NORTH DAKOTA
  
CITY           SKY/WX    TMP DP  RH WIND       PRES   REMARKS
GRAND FORKS    CLOUDY    37  34  89 NW9       29.90R                  
DEVILS LAKE    CLOUDY    39  38  96 N12       29.94R                  
$$
 
NDZ022-023-025-028>030-036>039-047>053-181400-
SOUTHEAST NORTH DAKOTA
  
CITY           SKY/WX    TMP DP  RH WIND       PRES   REMARKS
FARGO          CLOUDY    42  41  96 NW5       29.89S                  
JAMESTOWN      CLOUDY    38  38 100 N7        29.92R                  
$$